Location: Newark
(49.3808°N, 3.1844°E)
Time: 16:54:26
(UTC+00:00)

Vanguard 2 Rocket - Pass Details

Date: 01 December 2019
Orbit: 554 x 3326 km, 32.9° (Epoch: 05 December)

Event Time Altitude Azimuth Distance (km) Brightness Sun altitude
Rises 22:39:20 0° 237° (WSW) 3,486 - -60.3°
Reaches altitude 10° 22:44:43 10° 194° (SSW) 2,070 - -60.6°
Maximum altitude 22:45:16 10° 187° (S) 2,020 - -60.7°
Drops below altitude 10° 22:45:48 10° 180° (S) 1,999 - -60.7°
Sets 22:50:09 0° 134° (SE) 2,725 - -61.0°
